Date String (YYYY-MM-DD hh:mm:ss) UTC,Instrument flags,Ambient pressure (hPa),Sample flow (lpm),Bypass flow (lpm),Sample temperature (°C),Ambient temperature (°C),ASC tube jacket temperature (°C),LED temperature (°C),Box temperature (°C),Sample RH (%),Span deviation,Mass concentration (μg/m³),Mass concentration (μg/m³),Mass concentration (μg/m³)
DateTimeUTC,F1_M11,P_M11,Q1_M11,Q2_M11,T1_M11,T2_M11,T3_M11,T4_M11,T5_M11,U1_M11,ZSPAN_M11,X0_M11,X2_M11,X1_M11
2022-03-28 19:00:00,,0818.8,4.99,0.00,28.4,27.6,00.0,37.2,30.2,05.5,0000.0,0005.95,0001.98,0001.20
2022-03-28 19:01:00,,0818.8,5.01,0.00,28.4,27.6,00.0,37.2,30.2,05.6,0000.0,0005.47,0001.97,0001.21
2022-03-28 19:02:00,,0818.7,4.99,0.00,28.4,27.6,00.0,37.2,30.2,05.6,0000.0,0004.49,0001.98,0001.21
2022-03-28 19:03:00,,0818.7,4.99,0.00,28.4,27.6,00.0,37.2,30.2,06.1,0000.0,0005.10,0002.00,0001.21
2022-03-28 19:04:00,,0818.7,5.01,0.00,28.4,27.6,00.0,37.2,30.2,05.8,0000.0,0006.09,0002.03,0001.22
2022-03-28 19:05:00,,0818.8,5.00,0.00,28.4,27.6,00.0,37.2,30.2,05.5,0000.0,0006.40,0002.12,0001.23
2022-03-28 19:06:00,,0818.8,5.00,0.00,28.4,27.6,00.0,37.3,30.2,05.6,0000.0,0006.66,0002.22,0001.24
2022-03-28 19:07:00,,0818.8,4.99,0.00,28.4,27.6,00.0,37.3,30.3,06.0,0000.0,0006.98,0002.26,0001.27
2022-03-28 19:08:00,,0818.7,5.00,0.00,28.4,27.7,00.0,37.3,30.2,05.9,0000.0,0007.34,0002.33,0001.29
2022-03-28 19:09:00,,0818.6,5.02,0.00,28.5,27.7,00.0,37.3,30.3,06.0,0000.0,0007.50,0002.40,0001.30
2022-03-28 19:10:00,,0818.6,5.00,0.00,28.5,27.7,00.0,37.3,30.3,06.2,0000.0,0007.76,0002.46,0001.31
2022-03-28 19:11:00,,0818.6,4.99,0.00,28.5,27.8,00.0,37.3,30.3,06.2,0000.0,0008.33,0002.51,0001.31
2022-03-28 19:12:00,,0818.6,5.01,0.00,28.5,27.8,00.0,37.3,30.3,06.8,0000.0,0008.40,0002.53,0001.31
2022-03-28 19:13:00,,0818.5,5.01,0.00,28.5,27.8,00.0,37.3,30.3,06.9,0000.0,0008.69,0002.64,0001.32
2022-03-28 19:14:00,,0818.5,4.99,0.00,28.5,27.8,00.0,37.4,30.3,06.7,0000.0,0008.70,0002.65,0001.34
2022-03-28 19:15:00,,0818.5,4.99,0.00,28.6,27.8,00.0,37.4,30.4,06.5,0000.0,0007.91,0002.63,0001.34
2022-03-28 19:16:00,,0818.5,5.02,0.00,28.6,27.9,00.0,37.4,30.4,06.4,0000.0,0007.82,0002.58,0001.34
2022-03-28 19:17:00,,0818.5,4.99,0.00,28.6,27.9,00.0,37.4,30.4,06.0,0000.0,0007.74,0002.49,0001.32
2022-03-28 19:18:00,,0818.5,4.99,0.00,28.6,27.9,00.0,37.4,30.5,05.8,0000.0,0007.68,0002.45,0001.31
2022-03-28 19:19:00,,0818.4,4.99,0.00,28.6,27.9,00.0,37.5,30.5,05.4,0000.0,0007.46,0002.43,0001.29
2022-03-28 19:20:00,,0818.4,5.02,0.00,28.7,27.9,00.0,37.5,30.5,05.3,0000.0,0007.38,0002.38,0001.27
2022-03-28 19:21:00,,0818.4,4.99,0.00,28.7,27.9,00.0,37.5,30.5,05.6,0000.0,0007.21,0002.41,0001.26
2022-03-28 19:22:00,,0818.4,4.99,0.00,28.7,28.0,00.0,37.5,30.5,05.9,0000.0,0006.55,0002.41,0001.26
2022-03-28 19:23:00,,0818.4,5.01,0.00,28.7,28.0,00.0,37.5,30.5,05.8,0000.0,0006.18,0002.41,0001.25
2022-03-28 19:24:00,,0818.3,4.99,0.00,28.7,28.0,00.0,37.5,30.5,05.8,0000.0,0005.88,0002.32,0001.23
2022-03-28 19:25:00,,0818.2,4.99,0.00,28.8,28.1,00.0,37.6,30.6,06.7,0000.0,0006.95,0002.33,0001.22
2022-03-28 19:26:00,,0818.2,5.02,0.00,28.8,28.1,00.0,37.6,30.6,05.7,0000.0,0007.22,0002.38,0001.21
2022-03-28 19:27:00,,0818.2,5.00,0.00,28.8,28.1,00.0,37.6,30.6,06.3,0000.0,0007.98,0002.40,0001.21
2022-03-28 19:28:00,,0818.3,5.00,0.00,28.8,28.1,00.0,37.6,30.7,06.0,0000.0,0009.32,0002.42,0001.20
2022-03-28 19:29:00,,0818.3,5.00,0.00,28.9,28.2,00.0,37.6,30.7,06.3,0000.0,0009.61,0002.43,0001.20
2022-03-28 19:30:00,,0818.3,4.99,0.00,28.9,28.2,00.0,37.7,30.7,05.6,0000.0,0009.60,0002.45,0001.19
2022-03-28 19:31:00,,0818.3,5.01,0.00,28.9,28.2,00.0,37.7,30.7,05.5,0000.0,0009.47,0002.47,0001.21
2022-03-28 19:32:00,,0818.2,4.99,0.00,28.9,28.2,00.0,37.7,30.8,05.4,0000.0,0009.25,0002.45,0001.23
2022-03-28 19:33:00,,0818.2,5.00,0.00,28.9,28.2,00.0,37.7,30.8,05.5,0000.0,0009.13,0002.43,0001.23
2022-03-28 19:34:00,,0818.1,5.01,0.00,29.0,28.2,00.0,37.7,30.8,05.6,0000.0,0009.31,0002.50,0001.24
2022-03-28 19:35:00,,0818.2,4.99,0.00,29.0,28.2,00.0,37.8,30.8,06.0,0000.0,0009.47,0002.58,0001.25
2022-03-28 19:36:00,,0818.1,4.99,0.00,29.0,28.3,00.0,37.8,30.8,05.5,0000.0,0008.79,0002.57,0001.25
2022-03-28 19:37:00,,0818.1,5.01,0.00,29.0,28.3,00.0,37.8,30.8,05.4,0000.0,0008.65,0002.53,0001.25
2022-03-28 19:38:00,,0818.1,5.00,0.00,29.0,28.3,00.0,37.8,30.8,05.3,0000.0,0008.18,0002.53,0001.25
2022-03-28 19:39:00,,0818.1,4.99,0.00,29.0,28.3,00.0,37.8,30.8,05.3,0000.0,0006.40,0002.51,0001.25
2022-03-28 19:40:00,,0818.1,4.99,0.00,29.0,28.3,00.0,37.9,30.9,05.2,0000.0,0005.35,0002.51,0001.26
2022-03-28 19:41:00,,0818.0,5.02,0.00,29.1,28.4,00.0,37.9,30.9,05.1,0000.0,0005.83,0002.50,0001.26
2022-03-28 19:42:00,,0818.0,5.01,0.00,29.1,28.4,00.0,37.9,30.9,04.9,0000.0,0005.93,0002.51,0001.26
2022-03-28 19:43:00,,0818.0,4.99,0.00,29.1,28.4,00.0,37.9,30.9,04.9,0000.0,0006.06,0002.40,0001.23
2022-03-28 19:44:00,,0818.0,5.00,0.00,29.1,28.4,00.0,37.9,30.9,04.9,0000.0,0005.96,0002.37,0001.22
2022-03-28 19:45:00,,0818.0,5.01,0.00,29.2,28.5,00.0,37.9,30.9,05.0,0000.0,0005.69,0002.27,0001.21
2022-03-28 19:46:00,,0817.9,5.00,0.00,29.2,28.5,00.0,38.0,31.0,05.0,0000.0,0005.24,0002.14,0001.20
2022-03-28 19:47:00,,0817.9,4.99,0.00,29.2,28.5,00.0,38.0,31.0,05.0,0000.0,0005.88,0002.12,0001.21
2022-03-28 19:48:00,,0817.8,5.02,0.00,29.2,28.6,00.0,38.0,31.0,05.0,0000.0,0006.10,0002.11,0001.21
2022-03-28 19:49:00,,0817.9,5.00,0.00,29.3,28.6,00.0,38.0,31.1,05.0,0000.0,0006.15,0002.16,0001.22
2022-03-28 19:50:00,,0817.8,4.99,0.00,29.3,28.6,00.0,38.0,31.1,05.3,0000.0,0005.98,0002.11,0001.22
2022-03-28 19:51:00,,0817.8,5.00,0.00,29.3,28.7,00.0,38.1,31.1,05.1,0000.0,0006.35,0002.09,0001.24
2022-03-28 19:52:00,,0817.8,5.00,0.00,29.3,28.7,00.0,38.1,31.1,05.0,0000.0,0006.64,0002.10,0001.26
2022-03-28 19:53:00,,0817.8,4.99,0.00,29.4,28.7,00.0,38.1,31.2,05.1,0000.0,0006.36,0002.08,0001.25
2022-03-28 19:54:00,,0817.8,5.00,0.00,29.4,28.8,00.0,38.1,31.2,05.1,0000.0,0006.72,0002.15,0001.26
2022-03-28 19:55:00,,0817.8,5.01,0.00,29.4,28.8,00.0,38.2,31.2,05.3,0000.0,0007.41,0002.18,0001.27
2022-03-28 19:56:00,,0817.7,5.00,0.00,29.4,28.8,00.0,38.2,31.3,05.6,0000.0,0007.47,0002.23,0001.28
2022-03-28 19:57:00,,0817.7,5.00,0.00,29.5,28.8,00.0,38.2,31.3,05.1,0000.0,0007.58,0002.28,0001.29
2022-03-28 19:58:00,,0817.7,4.99,0.00,29.5,28.9,00.0,38.2,31.3,05.1,0000.0,0007.10,0002.26,0001.27
2022-03-28 19:59:00,,0817.8,4.99,0.00,29.5,28.9,00.0,38.3,31.3,05.1,0000.0,0007.23,0002.23,0001.27
